period_start,C,m1,H,J0,J1,J2,J3,J4,J5,JA,JB,JC,JD,JJ,JK,JN,#
2013-07-16 00:00:09,-0.02,0.11,0.00,28.19,30.15,32.20,5.98,33.50,1014.19,2046.97,3414.90,3317.07,3603.64,351.04,318.78,14.32,0000 0000 0000 0000 000000
2013-07-16 00:01:09,0.01,0.11,0.00,28.17,30.15,32.27,5.75,33.33,1014.18,2046.99,3414.91,3317.05,3603.59,349.41,317.10,14.33,0000 0000 0000 0000 000000
2013-07-16 00:02:10,0.01,0.11,0.00,28.14,30.15,32.26,5.80,33.33,1014.18,2046.98,3414.86,3317.03,3603.45,350.19,317.80,14.33,0000 0000 0000 0000 000000
2013-07-16 00:03:10,0.02,0.11,0.00,28.17,30.16,32.23,5.88,33.50,1014.18,2046.99,3414.79,3317.03,3603.31,350.96,318.52,14.34,0000 0000 0000 0000 000000
2013-07-16 00:04:10,0.02,0.11,0.00,28.18,30.17,32.26,5.79,33.38,1014.18,2046.97,3414.85,3317.05,3603.36,349.27,316.96,14.34,0000 0000 0000 0000 000000
2013-07-16 00:05:10,-0.01,0.11,0.00,28.14,30.17,32.27,5.82,33.46,1014.18,2046.97,3414.87,3317.04,3603.38,349.75,317.20,14.35,0000 0000 0000 0000 000000
2013-07-16 00:06:11,-0.03,0.11,0.00,28.16,30.17,32.27,5.84,33.58,1014.19,2046.94,3414.77,3317.03,3603.37,349.71,317.39,14.35,0000 0000 0000 0000 000000
2013-07-16 00:07:11,0.02,0.11,0.00,28.14,30.17,32.28,5.88,33.67,1014.18,2046.95,3414.52,3317.02,3603.24,350.27,317.92,14.36,0000 0000 0000 0000 000000
2013-07-16 00:08:11,0.05,0.11,0.00,28.10,30.17,32.35,5.78,33.25,1014.18,2046.95,3414.49,3317.02,3603.17,350.37,318.32,14.37,0000 0000 0000 0000 000000
2013-07-16 00:09:12,0.00,0.11,0.00,28.09,30.17,32.25,5.88,33.58,1014.18,2046.92,3414.38,3317.00,3603.07,350.27,317.97,14.37,0000 0000 0000 0000 000000
2013-07-16 00:10:12,0.01,0.11,0.00,28.11,30.17,32.15,5.88,33.58,1014.18,2046.92,3414.26,3317.00,3603.02,348.95,317.63,14.38,0000 0000 0000 0000 000000
2013-07-16 00:11:12,0.01,0.11,0.00,28.14,30.17,32.12,5.95,33.33,1014.18,2046.94,3414.22,3317.01,3603.02,350.87,317.74,14.38,0000 0000 0000 0000 000000
2013-07-16 00:12:12,0.02,0.11,0.00,28.12,30.17,32.27,5.83,33.38,1014.18,2046.96,3414.26,3317.00,3603.03,350.05,318.09,14.39,0000 0000 0000 0000 000000
2013-07-16 00:13:13,0.01,0.11,0.00,28.11,30.18,32.32,5.77,33.42,1014.18,2046.95,3414.31,3317.01,3603.03,349.40,317.32,14.40,0000 0000 0000 0000 000000
2013-07-16 00:14:13,-0.01,0.11,0.00,28.11,30.18,32.30,5.84,33.50,1014.18,2046.92,3414.26,3317.00,3603.05,350.61,318.67,14.40,0000 0000 0000 0000 000000
2013-07-16 00:15:13,-0.02,0.11,0.00,28.10,30.18,32.27,5.90,33.50,1014.18,2046.91,3414.35,3317.00,3603.02,349.85,317.58,14.41,0000 0000 0000 0000 000000
2013-07-16 00:16:14,-0.02,0.11,0.00,28.07,30.19,32.30,5.96,33.46,1014.18,2046.93,3414.32,3317.01,3603.06,349.79,317.55,14.41,0000 0000 0000 0000 000000
2013-07-16 00:17:14,0.01,0.11,0.00,28.08,30.19,32.30,5.82,33.25,1014.18,2046.93,3414.31,3317.00,3603.05,349.70,317.55,14.42,0000 0000 0000 0000 000000
2013-07-16 00:18:14,0.01,0.11,0.00,28.11,30.20,32.15,5.90,33.25,1014.18,2046.92,3414.21,3317.00,3603.03,350.39,318.07,14.42,0000 0000 0000 0000 000000
2013-07-16 00:19:14,-0.00,0.11,0.00,28.18,30.20,32.06,5.73,33.29,1014.18,2046.88,3414.20,3317.00,3603.01,349.13,316.85,14.43,0000 0000 0000 0000 000000
2013-07-16 00:20:15,-0.00,0.11,0.00,28.19,30.20,32.11,5.78,33.25,1014.18,2046.90,3414.18,3317.00,3603.03,349.74,317.17,14.44,0000 0000 0000 0000 000000
2013-07-16 00:21:15,-0.00,0.11,0.00,28.17,30.20,32.08,5.89,33.46,1014.18,2046.88,3414.18,3317.00,3603.01,350.07,317.71,14.44,0000 0000 0000 0000 000000
2013-07-16 00:22:15,-0.01,0.11,0.00,28.16,30.20,31.91,5.81,33.13,1014.18,2046.89,3414.22,3317.00,3603.00,349.29,316.69,14.45,0000 0000 0000 0000 000000
2013-07-16 00:23:16,0.00,0.11,0.00,28.13,30.20,31.95,5.90,33.29,1014.18,2046.90,3414.36,3317.00,3603.03,350.89,318.50,14.45,0000 0000 0000 0000 000000
2013-07-16 00:24:16,-0.03,0.11,0.00,28.15,30.20,31.99,5.77,33.08,1014.18,2046.90,3414.50,3317.01,3603.02,350.50,318.12,14.46,0000 0000 0000 0000 000000
2013-07-16 00:25:16,-0.01,0.11,0.00,28.18,30.20,32.02,5.81,33.00,1014.18,2046.92,3414.43,3317.03,3603.00,349.57,317.25,14.47,0000 0000 0000 0000 000000
2013-07-16 00:26:16,0.01,0.11,0.00,28.22,30.20,31.93,5.68,32.92,1014.18,2046.86,3414.26,3317.01,3603.01,348.78,316.48,14.47,0000 0000 0000 0000 000000
2013-07-16 00:27:17,-0.06,0.11,0.00,28.21,30.22,31.89,5.97,33.25,1014.18,2046.75,3414.11,3317.00,3603.00,350.73,318.41,14.48,0000 0000 0000 0000 000000
2013-07-16 00:28:17,-0.06,0.11,0.00,28.22,30.22,32.01,5.75,32.75,1014.18,2046.65,3414.09,3317.00,3603.00,350.45,318.00,14.48,0000 0000 0000 0000 000000
2013-07-16 00:29:17,-0.04,0.11,0.00,28.25,30.22,31.94,5.86,32.79,1014.18,2046.58,3414.08,3317.00,3603.00,349.60,317.20,14.49,0000 0000 0000 0000 000000
2013-07-16 00:30:17,-0.05,0.11,0.00,28.27,30.22,32.01,5.89,33.08,1014.18,2046.59,3414.05,3317.00,3603.00,350.81,317.91,14.50,0000 0000 0000 0000 000000
2013-07-16 00:31:18,0.00,0.11,0.00,28.27,30.22,32.11,5.89,33.13,1014.18,2046.50,3414.03,3317.00,3603.00,349.74,317.17,14.50,0000 0000 0000 0000 000000
2013-07-16 00:32:18,-0.03,0.11,0.00,28.32,30.22,32.23,5.84,33.00,1014.18,2046.51,3414.05,3317.00,3603.00,349.87,317.81,14.51,0000 0000 0000 0000 000000
2013-07-16 00:33:18,-0.02,0.11,0.00,28.32,30.22,32.19,5.88,33.38,1014.17,2046.54,3414.04,3316.99,3603.00,349.62,317.14,14.51,0000 0000 0000 0000 000000
2013-07-16 00:34:18,0.03,0.11,0.00,28.28,30.22,32.18,5.77,33.04,1014.17,2046.66,3414.05,3316.99,3603.00,349.73,317.28,14.52,0000 0000 0000 0000 000000
2013-07-16 00:35:19,0.06,0.11,0.00,28.27,30.22,32.23,5.80,33.29,1014.17,2046.55,3414.07,3316.98,3603.00,350.40,317.90,14.52,0000 0000 0000 0000 000000
2013-07-16 00:36:19,-0.11,0.11,0.00,28.27,30.23,32.33,5.74,33.00,1014.17,2046.41,3414.03,3316.99,3603.00,349.49,317.08,14.53,0000 0000 0000 0000 000000
2013-07-16 00:37:19,-0.06,0.11,0.00,28.20,30.24,32.31,5.91,33.29,1014.17,2046.42,3414.01,3316.98,3603.00,349.95,317.57,14.54,0000 0000 0000 0000 000000
2013-07-16 00:38:20,-0.00,0.11,0.00,28.19,30.25,32.24,5.98,33.67,1014.17,2046.39,3414.00,3316.99,3603.00,351.17,318.76,14.54,0000 0000 0000 0000 000000
2013-07-16 00:39:20,-0.02,0.11,0.00,28.19,30.25,32.17,5.83,33.29,1014.17,2046.27,3414.00,3316.99,3603.00,349.26,316.94,14.55,0000 0000 0000 0000 000000
2013-07-16 00:40:20,-0.07,0.11,0.00,28.20,30.25,32.23,5.89,33.25,1014.17,2046.22,3414.01,3316.97,3603.00,350.54,317.93,14.55,0000 0000 0000 0000 000000
2013-07-16 00:41:20,-0.04,0.11,0.00,28.21,30.25,32.26,5.81,33.00,1014.17,2046.17,3414.01,3316.94,3602.99,350.20,316.93,14.56,0000 0000 0000 0000 000000
2013-07-16 00:42:21,-0.04,0.11,0.00,28.23,30.25,32.11,5.77,33.00,1014.17,2046.15,3414.00,3316.96,3602.99,349.93,317.08,14.57,0000 0000 0000 0000 000000
2013-07-16 00:43:21,0.01,0.11,0.00,28.26,30.25,32.04,5.92,33.25,1014.17,2046.12,3414.00,3316.96,3602.99,349.63,316.98,14.57,0000 0000 0000 0000 000000
2013-07-16 00:44:21,-0.03,0.11,0.00,28.26,30.25,32.00,5.76,32.96,1014.17,2046.07,3414.00,3316.86,3602.97,350.01,317.60,14.58,0000 0000 0000 0000 000000
2013-07-16 00:45:22,-0.02,0.11,0.00,28.23,30.25,31.97,5.88,33.42,1014.17,2046.06,3414.00,3316.85,3602.94,350.87,318.24,14.58,0000 0000 0000 0000 000000
2013-07-16 00:46:22,0.00,0.11,0.00,28.21,30.25,32.15,5.77,32.79,1014.17,2046.09,3414.00,3316.90,3602.95,350.33,317.89,14.59,0000 0000 0000 0000 000000
2013-07-16 00:47:22,0.00,0.11,0.00,28.21,30.26,31.99,5.84,33.29,1014.17,2046.06,3414.01,3316.89,3602.92,350.27,317.86,14.59,0000 0000 0000 0000 000000
2013-07-16 00:48:22,-0.01,0.11,0.00,28.20,30.27,31.97,5.79,32.83,1014.17,2046.06,3414.00,3316.91,3602.92,350.21,317.36,14.60,0000 0000 0000 0000 000000
2013-07-16 00:49:23,-0.02,0.11,0.00,28.22,30.27,31.94,5.87,32.96,1014.14,2046.05,3414.00,3316.94,3602.92,349.94,317.95,14.61,0000 0000 0000 0000 000000
2013-07-16 00:50:23,0.00,0.11,0.00,28.22,30.27,31.99,5.92,33.29,1014.16,2046.05,3414.00,3316.91,3602.92,350.50,318.04,14.61,0000 0000 0000 0000 000000
2013-07-16 00:51:23,-0.00,0.11,0.00,28.25,30.27,31.92,5.88,32.92,1014.16,2046.02,3414.00,3316.87,3602.91,350.45,317.97,14.62,0000 0000 0000 0000 000000
2013-07-16 00:52:23,-0.00,0.11,0.00,28.24,30.27,32.07,5.78,32.50,1014.16,2046.03,3414.00,3316.86,3602.90,349.46,317.08,14.62,0000 0000 0000 0000 000000
2013-07-16 00:53:23,0.00,0.11,0.00,28.28,30.27,32.01,5.83,32.67,1014.17,2046.04,3414.00,3316.81,3602.85,350.00,317.53,14.63,0000 0000 0000 0000 000000
2013-07-16 00:54:24,0.02,0.11,0.00,28.30,30.27,32.15,5.95,33.25,1014.17,2046.02,3414.00,3316.66,3602.74,350.57,318.23,14.64,0000 0000 0000 0000 000000
2013-07-16 00:55:24,0.02,0.11,0.00,28.31,30.28,32.06,5.88,32.75,1014.17,2046.05,3414.00,3316.55,3602.66,349.96,317.46,14.64,0000 0000 0000 0000 000000
2013-07-16 00:56:24,0.04,0.11,0.00,28.31,30.28,32.11,5.75,32.63,1014.17,2046.05,3414.00,3316.56,3602.61,349.77,317.05,14.65,0000 0000 0000 0000 000000
2013-07-16 00:57:25,0.02,0.11,0.00,28.30,30.30,32.02,5.89,33.29,1014.17,2046.02,3413.99,3316.36,3602.53,349.99,317.73,14.65,0000 0000 0000 0000 000000
2013-07-16 00:58:25,0.04,0.11,0.00,28.29,30.30,31.97,5.95,32.83,1014.17,2046.04,3413.98,3316.35,3602.47,350.88,318.02,14.66,0000 0000 0000 0000 000000
2013-07-16 00:59:25,0.01,0.11,0.00,28.29,30.30,32.05,5.76,33.00,1014.17,2046.04,3413.99,3316.27,3602.46,349.40,316.97,14.67,0000 0000 0000 0000 000000
2013-07-16 01:00:25,0.03,0.11,0.00,28.26,30.30,32.06,5.87,32.92,1014.17,2046.04,3413.98,3316.14,3602.28,350.86,318.23,14.67,0000 0000 0000 0000 000000
2013-07-16 01:01:26,0.04,0.11,0.00,28.35,30.30,31.96,5.96,33.00,1014.17,2046.02,3413.97,3316.06,3602.14,350.79,318.02,14.68,0000 0000 0000 0000 000000
2013-07-16 01:02:26,0.02,0.11,0.00,28.39,30.30,32.07,5.84,32.79,1014.17,2046.02,3413.95,3316.06,3602.07,349.83,316.72,14.68,0000 0000 0000 0000 000000
2013-07-16 01:03:26,0.01,0.11,0.00,28.38,30.31,32.02,5.83,33.17,1014.17,2046.01,3413.86,3316.04,3602.05,350.21,317.62,14.69,0000 0000 0000 0000 000000
2013-07-16 01:04:26,0.01,0.11,0.00,28.39,30.32,32.04,5.79,33.13,1014.17,2046.00,3413.81,3316.03,3602.03,350.60,317.92,14.69,0000 0000 0000 0000 000000
2013-07-16 01:05:26,0.00,0.11,0.00,28.40,30.32,32.13,5.85,33.17,1014.17,2046.00,3413.72,3316.02,3602.02,350.31,317.68,14.70,0000 0000 0000 0000 000000
2013-07-16 01:06:27,0.01,0.11,0.00,28.35,30.32,32.16,5.91,33.04,1014.17,2046.00,3413.66,3316.00,3602.02,350.16,317.22,14.71,0000 0000 0000 0000 000000
2013-07-16 01:07:27,0.01,0.11,0.00,28.35,30.32,32.07,5.83,33.04,1014.17,2046.00,3413.63,3316.00,3602.00,350.46,317.87,14.71,0000 0000 0000 0000 000000
2013-07-16 01:08:27,0.00,0.11,0.00,28.36,30.32,32.27,5.79,32.83,1014.17,2046.00,3413.54,3316.00,3602.00,350.29,317.80,14.72,0000 0000 0000 0000 000000
2013-07-16 01:09:27,0.02,0.11,0.00,28.40,30.32,32.19,5.65,32.83,1014.17,2046.00,3413.36,3316.00,3602.00,349.46,317.34,14.72,0000 0000 0000 0000 000000
2013-07-16 01:10:28,0.02,0.11,0.00,28.41,30.32,32.21,6.01,33.50,1014.17,2046.00,3413.31,3316.00,3602.00,350.58,318.02,14.73,0000 0000 0000 0000 000000
2013-07-16 01:11:28,-0.00,0.11,0.00,28.43,30.33,32.25,5.83,33.00,1014.17,2046.00,3413.36,3316.00,3602.00,349.10,316.56,14.74,0000 0000 0000 0000 000000
2013-07-16 01:12:28,-0.00,0.11,0.00,28.43,30.34,32.15,5.78,33.42,1014.17,2046.00,3413.34,3316.00,3602.00,349.48,316.90,14.74,0000 0000 0000 0000 000000
2013-07-16 01:13:28,0.00,0.11,0.00,28.37,30.35,32.17,5.81,33.17,1014.17,2046.00,3413.28,3316.00,3602.00,349.60,317.07,14.75,0000 0000 0000 0000 000000
2013-07-16 01:14:29,0.01,0.11,0.00,28.34,30.35,32.09,5.92,33.13,1014.17,2046.00,3413.20,3316.00,3602.00,351.01,318.37,14.75,0000 0000 0000 0000 000000
2013-07-16 01:15:29,0.01,0.11,0.00,28.36,30.35,32.06,5.75,32.83,1014.17,2046.00,3413.13,3316.00,3601.99,349.25,316.76,14.76,0000 0000 0000 0000 000000
2013-07-16 01:16:29,0.00,0.11,0.00,28.35,30.35,31.98,5.94,33.13,1014.17,2046.00,3413.11,3316.00,3601.98,350.67,318.06,14.77,0000 0000 0000 0000 000000
2013-07-16 01:17:29,0.01,0.11,0.00,28.37,30.35,32.05,5.89,33.21,1014.17,2046.00,3413.08,3316.00,3601.98,350.34,317.62,14.77,0000 0000 0000 0000 000000
2013-07-16 01:18:29,0.00,0.11,0.00,28.40,30.35,32.22,5.96,33.25,1014.15,2046.00,3413.05,3316.00,3601.97,350.69,318.02,14.78,0000 0000 0000 0000 000000
2013-07-16 01:19:30,0.00,0.11,0.00,28.46,30.36,32.10,5.75,33.00,1014.13,2046.00,3413.08,3316.00,3601.95,349.04,316.76,14.78,0000 0000 0000 0000 000000
2013-07-16 01:20:30,0.00,0.11,0.00,28.49,30.37,32.18,5.78,33.17,1014.14,2046.00,3413.08,3316.00,3601.95,349.82,317.40,14.79,0000 0000 0000 0000 000000
2013-07-16 01:21:30,0.00,0.11,0.00,28.46,30.37,32.06,5.80,32.54,1014.10,2046.00,3413.09,3315.99,3601.95,350.24,317.54,14.79,0000 0000 0000 0000 000000
2013-07-16 01:22:30,0.00,0.11,0.00,28.43,30.37,32.12,5.90,33.08,1014.08,2046.00,3413.07,3315.98,3601.93,351.12,318.36,14.80,0000 0000 0000 0000 000000
2013-07-16 01:23:30,0.00,0.11,0.00,28.40,30.37,32.23,5.68,32.67,1014.11,2045.98,3413.06,3315.98,3601.90,348.28,316.03,14.81,0000 0000 0000 0000 000000
2013-07-16 01:24:31,-0.02,0.11,0.00,28.41,30.37,32.12,5.82,33.04,1014.11,2045.98,3413.07,3315.99,3601.93,349.47,317.14,14.81,0000 0000 0000 0000 000000
2013-07-16 01:25:31,-0.00,0.11,0.00,28.43,30.37,32.18,5.96,32.83,1014.14,2045.99,3413.08,3315.99,3601.87,350.45,317.71,14.82,0000 0000 0000 0000 000000
2013-07-16 01:26:31,0.00,0.11,0.00,28.48,30.38,32.12,5.95,33.29,1014.12,2045.98,3413.07,3315.96,3601.86,349.44,317.29,14.82,0000 0000 0000 0000 000000
2013-07-16 01:27:31,0.00,0.11,0.00,28.49,30.39,32.28,5.88,32.88,1014.11,2045.95,3413.06,3315.89,3601.63,350.72,317.94,14.83,0000 0000 0000 0000 000000
2013-07-16 01:28:32,0.02,0.11,0.00,28.46,30.40,32.18,5.89,32.92,1014.13,2045.97,3413.04,3315.90,3601.52,350.45,318.11,14.84,0000 0000 0000 0000 000000
2013-07-16 01:29:32,0.01,0.11,0.00,28.43,30.40,32.26,5.88,33.04,1014.15,2045.96,3413.01,3315.87,3601.45,350.66,318.32,14.84,0000 0000 0000 0000 000000
2013-07-16 01:30:32,0.02,0.11,0.00,28.45,30.40,32.14,5.77,32.63,1014.14,2045.98,3413.00,3315.87,3601.37,350.69,318.44,14.85,0000 0000 0000 0000 000000
2013-07-16 01:31:33,0.02,0.11,0.00,28.48,30.40,32.21,5.82,32.67,1014.14,2045.98,3413.02,3315.85,3601.33,350.51,317.65,14.85,0000 0000 0000 0000 000000
2013-07-16 01:32:33,-0.01,0.11,0.00,28.48,30.40,32.11,5.80,32.79,1014.14,2045.95,3413.02,3315.79,3601.24,350.66,317.93,14.86,0000 0000 0000 0000 000000
2013-07-16 01:33:33,0.02,0.11,0.00,28.44,30.40,32.02,5.80,33.25,1014.15,2045.89,3413.01,3315.55,3601.17,349.72,317.10,14.86,0000 0000 0000 0000 000000
2013-07-16 01:34:33,-0.00,0.11,0.00,28.44,30.40,32.00,5.97,32.83,1014.12,2045.83,3413.00,3315.48,3601.10,350.48,317.77,14.87,0000 0000 0000 0000 000000
2013-07-16 01:35:34,-0.03,0.11,0.00,28.43,30.41,32.18,5.85,33.33,1014.14,2045.77,3413.00,3315.48,3601.08,350.64,317.94,14.88,0000 0000 0000 0000 000000
2013-07-16 01:36:34,-0.02,0.11,0.00,28.44,30.42,32.11,5.85,33.25,1014.12,2045.63,3413.00,3315.24,3601.06,349.85,316.93,14.88,0000 0000 0000 0000 000000
2013-07-16 01:37:34,-0.07,0.11,0.00,28.43,30.42,32.15,5.88,33.13,1014.06,2045.50,3413.00,3315.14,3601.04,351.16,317.97,14.89,0000 0000 0000 0000 000000
2013-07-16 01:38:34,-0.09,0.11,0.00,28.45,30.42,32.22,5.88,33.63,1014.06,2045.59,3413.00,3315.12,3601.04,350.07,317.73,14.89,0000 0000 0000 0000 000000
2013-07-16 01:39:35,0.09,0.11,0.00,28.52,30.42,32.25,5.86,33.33,1014.12,2045.55,3412.99,3315.11,3601.02,350.46,317.67,14.90,0000 0000 0000 0000 000000
2013-07-16 01:40:35,-0.02,0.11,0.00,28.56,30.42,32.23,5.89,33.21,1014.13,2045.42,3412.99,3315.07,3601.00,350.52,317.80,14.91,0000 0000 0000 0000 000000
2013-07-16 01:41:35,-0.13,0.11,0.00,28.62,30.42,32.29,5.98,33.75,1014.15,2045.27,3412.98,3315.03,3601.00,350.40,317.19,14.91,0000 0000 0000 0000 000000
2013-07-16 01:42:35,-0.06,0.11,0.00,28.64,30.43,32.23,5.74,33.58,1014.15,2045.21,3412.97,3315.01,3601.00,349.36,316.82,14.92,0000 0000 0000 0000 000000
2013-07-16 01:43:35,-0.04,0.11,0.00,28.67,30.44,32.19,5.98,33.58,1014.11,2045.14,3412.95,3315.00,3601.00,350.45,317.52,14.92,0000 0000 0000 0000 000000
2013-07-16 01:44:36,-0.03,0.11,0.00,28.68,30.44,32.34,5.83,33.42,1014.15,2045.11,3412.93,3315.00,3601.00,350.01,317.06,14.93,0000 0000 0000 0000 000000
2013-07-16 01:45:36,-0.02,0.11,0.00,28.67,30.45,32.26,5.67,32.67,1014.14,2045.11,3412.94,3315.00,3601.00,349.56,316.70,14.93,0000 0000 0000 0000 000000
2013-07-16 01:46:36,-0.00,0.11,0.00,28.65,30.45,32.32,5.97,33.38,1014.16,2045.13,3412.97,3315.01,3601.00,350.93,318.15,14.94,0000 0000 0000 0000 000000
2013-07-16 01:47:36,0.03,0.11,0.00,28.64,30.45,32.35,5.89,32.88,1014.15,2045.13,3412.99,3315.01,3601.00,350.21,317.33,14.95,0000 0000 0000 0000 000000
2013-07-16 01:48:37,-0.02,0.11,0.00,28.57,30.45,32.31,5.87,32.75,1014.16,2045.10,3412.99,3315.00,3601.00,351.01,317.81,14.95,0000 0000 0000 0000 000000
2013-07-16 01:49:37,-0.01,0.11,0.00,28.53,30.45,32.20,5.80,32.54,1014.16,2045.11,3412.98,3315.00,3601.00,348.46,316.31,14.96,0000 0000 0000 0000 000000
2013-07-16 01:50:37,-0.00,0.11,0.00,28.52,30.46,32.31,5.77,32.75,1014.17,2045.06,3412.98,3315.00,3601.00,349.59,316.38,14.96,0000 0000 0000 0000 000000
2013-07-16 01:51:37,-0.03,0.11,0.00,28.53,30.47,32.31,5.78,31.96,1014.17,2045.05,3412.95,3315.00,3601.00,349.62,317.34,14.97,0000 0000 0000 0000 000000
2013-07-16 01:52:38,-0.01,0.11,0.00,28.55,30.47,32.35,5.80,32.67,1014.17,2045.06,3412.96,3315.00,3601.00,349.89,316.72,14.98,0000 0000 0000 0000 000000
2013-07-16 01:53:38,0.00,0.11,0.00,28.55,30.47,32.27,5.90,33.13,1014.17,2045.05,3412.95,3315.00,3601.00,350.39,317.60,14.98,0000 0000 0000 0000 000000
2013-07-16 01:54:38,-0.01,0.11,0.00,28.57,30.47,32.37,5.89,32.71,1014.17,2045.04,3412.95,3315.00,3600.99,349.79,317.04,14.99,0000 0000 0000 0000 000000
2013-07-16 01:55:39,0.01,0.11,0.00,28.56,30.47,32.22,5.82,32.71,1014.15,2045.03,3412.97,3315.00,3600.98,349.95,317.19,14.99,0000 0000 0000 0000 000000
2013-07-16 01:56:39,-0.02,0.11,0.00,28.54,30.47,32.27,5.89,32.83,1014.15,2045.02,3412.96,3315.00,3600.97,349.94,317.19,15.00,0000 0000 0000 0000 000000
2013-07-16 01:57:39,0.00,0.11,0.00,28.53,30.49,32.22,5.88,32.67,1014.15,2045.02,3412.93,3315.00,3600.94,349.76,317.04,15.01,0000 0000 0000 0000 000000
2013-07-16 01:58:39,0.00,0.11,0.00,28.57,30.50,32.36,5.78,32.71,1014.16,2045.00,3412.90,3315.00,3600.90,349.83,317.06,15.01,0000 0000 0000 0000 000000
2013-07-16 01:59:39,0.00,0.11,0.00,28.61,30.50,32.39,5.88,32.58,1014.14,2045.01,3412.84,3315.00,3600.79,350.15,317.61,15.02,0000 0000 0000 0000 000000
2013-07-16 02:00:39,0.03,0.11,0.00,28.65,30.50,32.35,5.77,33.00,1014.15,2045.00,3412.86,3315.00,3600.80,349.40,316.58,15.02,0000 0000 0000 0000 000000
2013-07-16 02:01:39,-0.03,0.11,0.00,28.68,30.50,32.36,5.84,32.54,1014.16,2045.00,3412.83,3314.99,3600.77,349.71,316.84,15.03,0000 0000 0000 0000 000000
2013-07-16 02:02:39,0.01,0.11,0.00,28.69,30.50,32.38,5.91,33.42,1014.16,2045.01,3412.67,3314.98,3600.73,350.24,316.90,15.03,0000 0000 0000 0000 000000
2013-07-16 02:03:40,0.05,0.11,0.00,28.70,30.50,32.37,5.82,32.67,1014.11,2045.00,3412.59,3314.99,3600.73,350.08,317.07,15.04,0000 0000 0000 0000 000000
2013-07-16 02:04:40,0.00,0.11,0.00,28.70,30.51,32.36,5.77,33.25,1014.14,2045.00,3412.47,3314.98,3600.75,349.70,316.91,15.05,0000 0000 0000 0000 000000
2013-07-16 02:05:40,0.02,0.11,0.00,28.70,30.52,32.37,6.00,33.13,1014.17,2045.00,3412.31,3314.95,3600.54,350.86,317.86,15.05,0000 0000 0000 0000 000000
2013-07-16 02:06:40,0.05,0.11,0.00,28.69,30.52,32.27,5.86,33.13,1014.17,2045.00,3412.20,3314.97,3600.35,350.51,317.55,15.06,0000 0000 0000 0000 000000
2013-07-16 02:07:40,0.02,0.11,0.00,28.66,30.52,32.43,5.83,33.17,1014.17,2045.00,3412.13,3314.95,3600.26,349.72,317.03,15.06,0000 0000 0000 0000 000000
2013-07-16 02:08:41,0.02,0.11,0.00,28.62,30.52,32.36,5.89,32.42,1014.16,2045.00,3412.15,3314.96,3600.21,350.55,317.43,15.07,0000 0000 0000 0000 000000
2013-07-16 02:09:41,-0.01,0.11,0.00,28.66,30.52,32.43,5.84,32.88,1014.15,2045.00,3412.11,3314.86,3600.15,350.42,317.05,15.08,0000 0000 0000 0000 000000
2013-07-16 02:10:41,0.04,0.11,0.00,28.69,30.53,32.39,5.74,32.54,1014.15,2045.00,3412.05,3314.65,3600.07,350.01,317.10,15.08,0000 0000 0000 0000 000000
2013-07-16 02:11:41,0.06,0.11,0.00,28.72,30.54,32.40,5.84,33.04,1014.14,2045.00,3412.03,3314.53,3600.07,350.36,317.41,15.09,0000 0000 0000 0000 000000
2013-07-16 02:12:41,0.02,0.11,0.00,28.71,30.55,32.37,5.86,33.04,1014.15,2045.00,3412.00,3314.35,3600.03,350.04,317.10,15.09,0000 0000 0000 0000 000000
2013-07-16 02:13:42,0.04,0.11,0.00,28.71,30.55,32.44,5.85,32.96,1014.17,2045.00,3412.01,3314.43,3600.03,349.60,316.92,15.10,0000 0000 0000 0000 000000
2013-07-16 02:14:42,-0.03,0.11,0.00,28.69,30.55,32.35,5.91,32.71,1014.17,2045.00,3412.00,3314.42,3600.01,349.91,317.16,15.10,0000 0000 0000 0000 000000
2013-07-16 02:15:42,0.02,0.11,0.00,28.68,30.55,32.44,5.85,32.71,1014.17,2045.00,3412.01,3314.22,3600.00,350.89,318.09,15.11,0000 0000 0000 0000 000000
2013-07-16 02:16:42,0.04,0.11,0.00,28.63,30.55,32.30,5.83,32.54,1014.17,2044.99,3412.00,3314.13,3600.00,350.31,317.13,15.12,0000 0000 0000 0000 000000
2013-07-16 02:17:42,0.00,0.11,0.00,28.65,30.55,32.41,5.90,33.00,1014.17,2044.99,3412.00,3314.08,3600.00,350.41,317.51,15.12,0000 0000 0000 0000 000000
2013-07-16 02:18:43,0.01,0.11,0.00,28.69,30.56,32.42,5.87,32.79,1014.17,2044.99,3412.00,3314.07,3600.00,350.39,317.03,15.13,0000 0000 0000 0000 000000
2013-07-16 02:19:43,0.00,0.11,0.00,28.71,30.57,32.45,5.91,32.96,1014.17,2044.98,3412.00,3314.04,3600.00,351.16,318.03,15.13,0000 0000 0000 0000 000000
2013-07-16 02:20:43,0.00,0.11,0.00,28.73,30.57,32.47,5.83,33.17,1014.17,2044.97,3412.00,3314.01,3600.00,349.83,316.90,15.14,0000 0000 0000 0000 000000
2013-07-16 02:21:43,0.00,0.11,0.00,28.73,30.57,32.39,5.86,33.38,1014.16,2044.98,3412.00,3314.00,3600.00,350.02,317.07,15.15,0000 0000 0000 0000 000000
2013-07-16 02:22:44,0.00,0.11,0.00,28.71,30.57,32.37,5.82,33.29,1014.16,2044.98,3412.00,3314.00,3600.00,350.13,317.19,15.15,0000 0000 0000 0000 000000
2013-07-16 02:23:44,-0.01,0.11,0.00,28.67,30.57,32.34,5.83,32.75,1014.16,2044.98,3411.99,3314.00,3600.00,350.55,317.28,15.16,0000 0000 0000 0000 000000
2013-07-16 02:24:44,0.00,0.11,0.00,28.67,30.58,32.46,5.69,32.67,1014.16,2044.97,3411.98,3314.00,3600.00,349.69,316.84,15.16,0000 0000 0000 0000 000000
2013-07-16 02:25:44,0.00,0.11,0.00,28.68,30.59,32.36,5.74,32.21,1014.17,2044.94,3411.96,3314.00,3599.99,349.45,316.24,15.17,0000 0000 0000 0000 000000
2013-07-16 02:26:45,-0.02,0.11,0.00,28.65,30.60,32.44,5.86,32.75,1014.16,2044.95,3411.98,3314.00,3599.98,350.16,317.31,15.17,0000 0000 0000 0000 000000
2013-07-16 02:27:45,0.01,0.11,0.00,28.66,30.60,32.42,5.86,33.13,1014.16,2044.93,3411.96,3314.00,3599.97,350.01,317.13,15.18,0000 0000 0000 0000 000000
2013-07-16 02:28:45,-0.02,0.11,0.00,28.69,30.60,32.45,5.84,32.71,1014.15,2044.92,3411.95,3314.00,3599.95,350.14,317.06,15.19,0000 0000 0000 0000 000000
2013-07-16 02:29:45,0.00,0.11,0.00,28.75,30.60,32.48,5.73,32.67,1014.16,2044.88,3411.93,3313.99,3599.94,349.06,316.15,15.19,0000 0000 0000 0000 000000
2013-07-16 02:30:45,-0.03,0.11,0.00,28.78,30.60,32.52,5.82,32.46,1014.15,2044.82,3411.85,3313.99,3599.89,350.36,316.87,15.20,0000 0000 0000 0000 000000
2013-07-16 02:31:45,-0.03,0.11,0.00,28.81,30.61,32.51,5.88,33.17,1014.17,2044.76,3411.60,3313.99,3599.80,350.64,317.40,15.20,0000 0000 0000 0000 000000
2013-07-16 02:32:46,0.01,0.11,0.00,28.79,30.62,32.53,5.78,33.21,1014.17,2044.79,3411.53,3313.98,3599.72,350.09,317.30,15.21,0000 0000 0000 0000 000000
2013-07-16 02:33:46,0.03,0.11,0.00,28.82,30.62,32.44,5.68,32.75,1014.17,2044.62,3411.31,3313.96,3599.47,348.55,315.64,15.22,0000 0000 0000 0000 000000
2013-07-16 02:34:46,-0.09,0.11,0.00,28.84,30.62,32.51,5.68,32.50,1014.17,2044.50,3411.19,3313.97,3599.33,349.88,316.93,15.22,0000 0000 0000 0000 000000
2013-07-16 02:35:46,-0.02,0.11,0.00,28.83,30.62,32.48,5.98,33.42,1014.17,2044.37,3411.12,3313.91,3599.17,350.48,317.53,15.23,0000 0000 0000 0000 000000